STARLINK-1304 (45376 NORAD) Tracking and Keplerian Element Data

This shows tracking and keplerian element data for the satellite.

Feedback or suggestion? Click here.




ElementValue
Catalog45376
NameSTARLINK-1304
Epoch Orbit1696
Epoch Day185.50001157
Epoch Year2020
RAAN122.5083
Inclination53.0006
Eccentricity0.0001553
Argument of Perigee85.2394
Mean Anonmoly348.1958
Mean Motion15.05613665
Decay Rate-0.00034494
L11 45376U 20019S 20185.50001157 -.00034494 00000-0 -23576-2 0 9993
L22 45376 53.0006 122.5083 0001553 85.2394 348.1958 15.05613665 16965

Live tracking and technical data element details for STARLINK-1304 (NORAD 45376). STARLINK-1304 can be tracked NOW for your location showing map with azimuth and elevation plus other details from your city location.

Track the satellite on the map from your city or location and see movement details for azimuth, elevation, latitude, longitude, range, height, and movement on the map or in text.







IsCatalogInMostPopularTable: catalog: 45376, numindb: 20
Update: records affected: 1



GetName: 45376 STARLINK-1304

Hit Count: updated at: Fri, 03 Jul 2020 16:45:01 GMT